Find Starlink 31739

NORAD ID: 59766 Int'l Des: 2024-091 Owner: SPXS Country: US Constellation: starlink operational
LEOCIRCULAR

現在のビュー

3D地球を読み込み中...

About Starlink 31739

Starlink 31739 (NORAD 59766) is a starlink constellation satellite (v2 mini) launched May 14, 2024 by SPXS of US. It operates in LEO, CIRCULAR orbit with a mass of 730.00 kg.

次回通過

Passes for default location (London). Set your location on the main map for personalized predictions.

高度履歴

Loading altitude history...

軌道要素

1 59766U 24091P 26229.35632882 .00000633 00000-0 29878-4 0 9997
2 59766 53.1624 357.0361 0001051 68.2441 291.8673 15.34392388127656
Epoch: Aug 17, 2026 • Age: 21 hours

現在のステータス

高度 465.4 km
遠地点 / 近地点 N/A
速度 7.64 km/s
衛星直下点 37.38°N, 90.05°E
打ち上げ日 May 14, 2024
運用期間 2.2 years
タイプ internet

技術仕様

分類 Payload
質量 730.00 kg
乾燥質量 700.00 kg
総質量 730.00 kg
長さ 0.30 m
直径 4.10 m
スパン 29.00 m
形状 Box + pan
製造者 SPXS
バスタイプ Starlink V2M
フェーズステータス In Orbit
所有者/国 SPXS/US

Most Searched